Radiation Dose at Monitoring Post of Fukushima Daini Nuclear Power Station
Date,Time,MP-1(microSv/h),MP-2(microSv/h),MP-3(microSv/h),MP-4(microSv/h),MP-5(microSv/h),MP-6(microSv/h),MP-7(microSv/h),Wind Direction,Wind Velocity(m/s),Rain
2015/06/18,00:00,0.524,0.300,0.543,0.489,0.468,0.243,0.215,northeast,3.9,No
2015/06/18,00:10,0.517,0.300,0.542,0.491,0.463,0.243,0.214,northeast,3.4,No
2015/06/18,00:20,0.523,0.299,0.547,0.491,0.468,0.242,0.213,northeast,3.6,No
2015/06/18,00:30,0.524,0.302,0.541,0.488,0.464,0.241,0.215,northeast,3.6,No
2015/06/18,00:40,0.519,0.299,0.543,0.494,0.467,0.240,0.213,northeast,3.7,Yes
2015/06/18,00:50,0.525,0.302,0.546,0.488,0.468,0.242,0.216,northeast,3.7,Yes
2015/06/18,01:00,0.520,0.301,0.540,0.490,0.466,0.241,0.214,northeast,4.2,No
2015/06/18,01:10,0.522,0.300,0.549,0.491,0.468,0.242,0.216,east-northeast,4.1,No
2015/06/18,01:20,0.524,0.301,0.543,0.488,0.463,0.242,0.215,east-northeast,3.4,No
2015/06/18,01:30,0.518,0.297,0.542,0.491,0.467,0.241,0.214,northeast,3.3,No
2015/06/18,01:40,0.523,0.302,0.549,0.488,0.466,0.242,0.215,northeast,2.7,No
2015/06/18,01:50,0.520,0.300,0.542,0.489,0.463,0.241,0.213,northeast,2.8,No
2015/06/18,02:00,0.520,0.299,0.549,0.491,0.469,0.242,0.215,northeast,3.1,No
2015/06/18,02:10,0.525,0.300,0.547,0.485,0.463,0.242,0.214,northeast,2.9,No
2015/06/18,02:20,0.517,0.297,0.543,0.493,0.467,0.240,0.213,northeast,2.8,No
2015/06/18,02:30,0.525,0.301,0.548,0.488,0.467,0.242,0.214,northeast,3.0,No
2015/06/18,02:40,0.520,0.298,0.542,0.489,0.462,0.241,0.214,northeast,3.5,No
2015/06/18,02:50,0.522,0.301,0.545,0.493,0.468,0.242,0.215,northeast,3.3,No
2015/06/18,03:00,0.525,0.301,0.544,0.488,0.463,0.241,0.213,northeast,2.7,No
2015/06/18,03:10,0.519,0.300,0.541,0.493,0.468,0.242,0.214,east-northeast,2.4,No
2015/06/18,03:20,0.524,0.300,0.547,0.488,0.467,0.242,0.215,east-northeast,2.5,No
2015/06/18,03:30,0.519,0.298,0.541,0.489,0.463,0.240,0.214,northeast,2.3,No
2015/06/18,03:40,0.518,0.302,0.545,0.491,0.468,0.243,0.216,east-northeast,2.0,No
2015/06/18,03:50,0.523,0.299,0.545,0.488,0.463,0.241,0.214,east-northeast,2.2,No
2015/06/18,04:00,0.517,0.299,0.540,0.492,0.467,0.241,0.216,east-northeast,2.3,No
2015/06/18,04:10,0.523,0.301,0.548,0.487,0.467,0.241,0.213,east,1.9,No
2015/06/18,04:20,0.521,0.298,0.543,0.488,0.464,0.241,0.214,east,1.1,No
2015/06/18,04:30,0.520,0.301,0.543,0.491,0.468,0.243,0.214,east-northeast,1.0,No
2015/06/18,04:40,0.524,0.301,0.548,0.487,0.462,0.241,0.215,east-northeast,2.0,No
2015/06/18,04:50,0.519,0.300,0.540,0.493,0.466,0.241,0.214,east-northeast,1.8,No
2015/06/18,05:00,0.522,0.301,0.547,0.489,0.465,0.241,0.214,northeast,0.5,No
2015/06/18,05:10,0.522,0.299,0.545,0.488,0.462,0.242,0.214,northeast,0.6,No
2015/06/18,05:20,0.518,0.299,0.540,0.491,0.470,0.242,0.213,northeast,0.5,No
2015/06/18,05:30,0.525,0.300,0.548,0.486,0.465,0.241,0.215,northeast,1.4,No
2015/06/18,05:40,0.520,0.300,0.541,0.493,0.466,0.243,0.214,-,CALM,No
2015/06/18,05:50,0.520,0.300,0.543,0.490,0.467,0.242,0.214,east-northeast,0.6,No
2015/06/18,06:00,0.522,0.299,0.545,0.486,0.461,0.240,0.215,-,CALM,No
2015/06/18,06:10,0.516,0.301,0.541,0.491,0.468,0.241,0.214,east,0.6,No
2015/06/18,06:20,0.522,0.299,0.545,0.487,0.465,0.240,0.215,east-northeast,1.2,No
2015/06/18,06:30,0.522,0.298,0.543,0.488,0.461,0.241,0.215,east-northeast,0.6,No
2015/06/18,06:40,0.517,0.300,0.539,0.490,0.469,0.240,0.214,east,1.0,No
2015/06/18,06:50,0.523,0.299,0.550,0.485,0.464,0.240,0.215,east,1.6,No
2015/06/18,07:00,0.521,0.299,0.544,0.490,0.462,0.241,0.215,east,2.2,No
2015/06/18,07:10,0.519,0.301,0.541,0.492,0.470,0.241,0.214,east,2.0,No
2015/06/18,07:20,0.525,0.298,0.547,0.486,0.465,0.242,0.215,east,2.2,No
2015/06/18,07:30,0.518,0.300,0.542,0.493,0.463,0.241,0.214,east,3.0,No
2015/06/18,07:40,0.521,0.301,0.543,0.490,0.468,0.240,0.216,east,3.2,No
2015/06/18,07:50,0.524,0.298,0.545,0.486,0.463,0.241,0.215,east,3.2,No
2015/06/18,08:00,0.520,0.302,0.541,0.494,0.466,0.241,0.214,east,3.1,No
2015/06/18,08:10,0.522,0.300,0.543,0.490,0.471,0.240,0.216,east-northeast,2.5,No
2015/06/18,08:20,0.525,0.297,0.548,0.487,0.463,0.240,0.215,east,3.1,No
2015/06/18,08:30,0.517,0.301,0.543,0.493,0.463,0.241,0.213,east,2.7,No
2015/06/18,08:40,0.521,0.301,0.540,0.489,0.469,0.241,0.215,east,3.0,No
2015/06/18,08:50,0.522,0.298,0.549,0.486,0.466,0.242,0.214,east,3.5,No
2015/06/18,09:00,0.517,0.300,0.544,0.493,0.460,0.242,0.214,east,3.1,No
2015/06/18,09:10,0.523,0.300,0.539,0.489,0.469,0.241,0.215,east,2.8,No
2015/06/18,09:20,0.524,0.297,0.546,0.486,0.466,0.240,0.215,east,2.5,No
2015/06/18,09:30,0.517,0.300,0.544,0.491,0.462,0.242,0.214,east,3.2,No
2015/06/18,09:40,0.523,0.301,0.538,0.491,0.468,0.242,0.216,east,2.9,No
2015/06/18,09:50,0.522,0.299,0.548,0.487,0.467,0.241,0.214,east,2.3,No
2015/06/18,10:00,0.519,0.298,0.547,0.491,0.464,0.242,0.214,east,1.8,No
2015/06/18,10:10,0.521,0.302,0.540,0.492,0.461,0.240,0.215,east,2.4,No
2015/06/18,10:20,0.525,0.301,0.546,0.487,0.471,0.241,0.215,east,2.6,No
2015/06/18,10:30,0.520,0.298,0.549,0.489,0.466,0.242,0.214,east-southeast,1.6,No
2015/06/18,10:40,0.521,0.302,0.542,0.493,0.462,0.242,0.215,east-southeast,2.4,No
2015/06/18,10:50,0.527,0.300,0.542,0.488,0.464,0.241,0.216,east-southeast,2.6,No
2015/06/18,11:00,0.520,0.299,0.547,0.486,0.469,0.241,0.215,east-southeast,1.8,No
2015/06/18,11:10,0.517,0.298,0.543,0.494,0.464,0.243,0.213,east-southeast,2.1,No
2015/06/18,11:20,0.525,0.301,0.539,0.491,0.462,0.241,0.214,east-southeast,3.2,No
2015/06/18,11:30,0.521,0.301,0.545,0.487,0.461,0.241,0.215,east-southeast,3.2,No
2015/06/18,11:40,0.518,0.299,0.546,0.486,0.467,0.242,0.214,southeast,3.5,No
2015/06/18,11:50,0.517,0.296,0.541,0.495,0.470,0.242,0.214,southeast,3.7,No
2015/06/18,12:00,0.526,0.301,0.539,0.491,0.464,0.241,0.214,east-southeast,3.9,No
2015/06/18,12:10,0.522,0.301,0.548,0.488,0.463,0.240,0.216,east-southeast,3.6,No
2015/06/18,12:20,0.520,0.301,0.547,0.485,0.463,0.241,0.215,east-southeast,3.2,No
2015/06/18,12:30,0.516,0.297,0.545,0.485,0.462,0.242,0.215,southeast,3.9,No
2015/06/18,12:40,0.517,0.298,0.541,0.484,0.462,0.241,0.214,southeast,3.5,No
2015/06/18,12:50,0.517,0.299,0.539,0.489,0.463,0.241,0.215,east-southeast,3.2,No
2015/06/18,13:00,0.527,0.298,0.539,0.495,0.462,0.242,0.213,southeast,3.6,No
2015/06/18,13:10,0.526,0.298,0.539,0.493,0.464,0.244,0.214,southeast,2.9,No
2015/06/18,13:20,0.520,0.299,0.540,0.488,0.463,0.244,0.214,south,1.8,No
2015/06/18,13:30,0.518,0.297,0.542,0.489,0.463,0.242,0.213,southeast,3.2,No
2015/06/18,13:40,0.517,0.298,0.541,0.488,0.466,0.241,0.214,southeast,3.2,No
2015/06/18,13:50,0.522,0.300,0.543,0.487,0.465,0.242,0.216,south-southeast,2.6,No
2015/06/18,14:00,0.525,0.303,0.544,0.486,0.463,0.242,0.216,southeast,2.4,No
2015/06/18,14:10,0.525,0.303,0.545,0.492,0.464,0.242,0.216,southeast,2.3,No
2015/06/18,14:20,0.522,0.301,0.548,0.496,0.463,0.243,0.215,south-southeast,3.1,No
2015/06/18,14:30,0.519,0.300,0.549,0.493,0.463,0.244,0.214,southeast,3.0,No
2015/06/18,14:40,0.518,0.300,0.548,0.491,0.463,0.244,0.213,southeast,2.8,No
2015/06/18,14:50,0.519,0.299,0.545,0.489,0.465,0.243,0.214,southeast,2.0,No
2015/06/18,15:00,0.523,0.298,0.546,0.489,0.464,0.243,0.217,southeast,1.7,No
2015/06/18,15:10,0.527,0.301,0.544,0.498,0.464,0.242,0.216,east-southeast,2.6,No
2015/06/18,15:20,0.522,0.302,0.544,0.494,0.466,0.243,0.215,east-southeast,1.7,No
2015/06/18,15:30,0.520,0.301,0.542,0.490,0.466,0.243,0.215,east-southeast,2.0,No
2015/06/18,15:40,0.528,0.299,0.545,0.499,0.474,0.242,0.217,southeast,1.8,No
2015/06/18,15:50,0.527,0.302,0.552,0.495,0.471,0.243,0.216,south-southeast,1.9,No
2015/06/18,16:00,0.520,0.303,0.549,0.489,0.468,0.243,0.214,southeast,2.4,No
2015/06/18,16:10,0.524,0.301,0.548,0.492,0.464,0.242,0.217,southeast,1.7,No
2015/06/18,16:20,0.526,0.300,0.547,0.494,0.465,0.243,0.215,east-southeast,3.2,No
2015/06/18,16:30,0.523,0.303,0.551,0.490,0.473,0.244,0.214,southeast,2.6,No
2015/06/18,16:40,0.520,0.301,0.548,0.494,0.470,0.241,0.217,east-southeast,4.0,No
2015/06/18,16:50,0.530,0.300,0.546,0.497,0.466,0.243,0.216,east-southeast,3.6,No
2015/06/18,17:00,0.522,0.303,0.555,0.491,0.470,0.243,0.215,east-southeast,3.3,No
2015/06/18,17:10,0.519,0.302,0.548,0.494,0.471,0.242,0.216,east,4.1,No
2015/06/18,17:20,0.527,0.300,0.546,0.496,0.465,0.243,0.216,east-southeast,4.3,No
2015/06/18,17:30,0.524,0.303,0.553,0.490,0.467,0.243,0.216,east-southeast,3.4,No
2015/06/18,17:40,0.520,0.300,0.550,0.494,0.474,0.243,0.215,east-southeast,3.7,No
2015/06/18,17:50,0.527,0.302,0.546,0.495,0.466,0.243,0.215,east-southeast,3.7,No
2015/06/18,18:00,0.522,0.303,0.551,0.492,0.471,0.243,0.217,east-southeast,5.3,No
2015/06/18,18:10,0.523,0.299,0.546,0.499,0.472,0.243,0.216,east-southeast,5.3,No
2015/06/18,18:20,0.527,0.301,0.548,0.492,0.466,0.242,0.216,east-southeast,4.9,No
2015/06/18,18:30,0.522,0.301,0.551,0.495,0.472,0.243,0.215,east-southeast,5.6,No
2015/06/18,18:40,0.526,0.301,0.544,0.496,0.470,0.242,0.216,east-southeast,5.2,No
2015/06/18,18:50,0.525,0.302,0.553,0.492,0.466,0.243,0.216,east-southeast,3.8,No
2015/06/18,19:00,0.520,0.301,0.549,0.497,0.470,0.244,0.215,east-southeast,3.7,No
2015/06/18,19:10,0.529,0.302,0.549,0.493,0.467,0.244,0.217,east-southeast,4.4,No
2015/06/18,19:20,0.521,0.301,0.552,0.493,0.471,0.244,0.214,east-southeast,4.7,No
2015/06/18,19:30,0.526,0.303,0.545,0.495,0.465,0.243,0.216,east,5.0,No
2015/06/18,19:40,0.526,0.301,0.552,0.493,0.469,0.244,0.215,east-southeast,4.7,No
2015/06/18,19:50,0.522,0.303,0.550,0.498,0.469,0.243,0.216,east-southeast,4.3,No
2015/06/18,20:00,0.526,0.302,0.546,0.491,0.466,0.243,0.215,east-southeast,4.1,No
2015/06/18,20:10,0.520,0.301,0.551,0.498,0.469,0.245,0.216,east,4.3,No
2015/06/18,20:20,0.526,0.302,0.544,0.492,0.466,0.240,0.215,east-southeast,4.1,No
2015/06/18,20:30,0.525,0.300,0.551,0.494,0.471,0.244,0.215,east-southeast,4.0,No
2015/06/18,20:40,0.523,0.302,0.547,0.495,0.467,0.243,0.215,east-southeast,3.1,No
2015/06/18,20:50,0.525,0.299,0.546,0.493,0.467,0.242,0.216,east-southeast,2.6,No
2015/06/18,21:00,0.521,0.302,0.551,0.497,0.469,0.243,0.216,east-southeast,1.9,No
2015/06/18,21:10,0.527,0.301,0.545,0.490,0.465,0.242,0.217,east-southeast,1.9,No
2015/06/18,21:20,0.521,0.300,0.551,0.495,0.470,0.243,0.217,southeast,1.8,No
2015/06/18,21:30,0.525,0.301,0.546,0.491,0.464,0.241,0.215,east,1.5,No
2015/06/18,21:40,0.524,0.301,0.548,0.495,0.470,0.243,0.215,east,1.5,No
2015/06/18,21:50,0.523,0.301,0.550,0.494,0.465,0.242,0.216,east,1.6,No
2015/06/18,22:00,0.524,0.301,0.546,0.491,0.470,0.244,0.217,east,1.4,No
2015/06/18,22:10,0.520,0.303,0.549,0.496,0.468,0.242,0.216,east,0.8,No
2015/06/18,22:20,0.526,0.301,0.544,0.490,0.466,0.242,0.216,east-southeast,1.8,No
2015/06/18,22:30,0.520,0.302,0.551,0.495,0.470,0.243,0.216,east,1.6,No
2015/06/18,22:40,0.526,0.299,0.548,0.493,0.463,0.243,0.217,east-southeast,1.3,No
2015/06/18,22:50,0.525,0.302,0.547,0.494,0.471,0.243,0.215,east,1.3,No
2015/06/18,23:00,0.522,0.300,0.550,0.495,0.466,0.242,0.216,-,CALM,No
2015/06/18,23:10,0.525,0.302,0.547,0.493,0.468,0.244,0.216,south-southeast,1.0,No
2015/06/18,23:20,0.521,0.302,0.552,0.497,0.469,0.243,0.217,east-southeast,0.7,No
2015/06/18,23:30,0.527,0.300,0.545,0.491,0.465,0.244,0.215,east-southeast,2.1,No
2015/06/18,23:40,0.521,0.302,0.550,0.495,0.470,0.244,0.216,east-southeast,3.9,No
2015/06/18,23:50,0.525,0.300,0.548,0.493,0.465,0.242,0.214,east-southeast,4.0,No
